Simultaneous Nadir Overpasses (SNOs) Predictions

Prediction of SNOs between GOES-17 and FY3D Satellite Orbit:

Table of predicted SNOs for the next 14.0 days since TLE Epoch: 3/3/2023
Index Date Time (GOES-17) GOES-17 Lat,Lon FY3D Lat,Lon Distance(km) Time Diff (sec)
1 03/03/2023 20:59:56 0.00,-104.70 0.07,-104.47 26.49 80
2 03/06/2023 09:03:59 -0.01,-104.71 0.12,-105.42 80.72 80
3 03/07/2023 08:42:58 -0.01,-104.71 -0.87,-100.97 426.50 80
4 03/08/2023 21:05:29 0.01,-104.71 -0.34,-106.40 191.29 80
5 03/09/2023 20:49:47 0.01,-104.72 0.66,-101.95 316.23 80
6 03/11/2023 09:12:11 -0.01,-104.73 0.56,-107.34 297.41 80
7 03/12/2023 08:51:09 -0.01,-104.73 -0.44,-102.89 209.71 80
8 03/13/2023 21:13:40 0.01,-104.72 -0.81,-108.30 408.99 80
9 03/14/2023 20:57:58 0.01,-104.72 0.20,-103.86 97.97 80
10 03/17/2023 09:02:00 -0.02,-104.72 -0.01,-104.80 9.51 80
